Time,TemperatureF,DewpointF,PressureIn,WindDirection,WindDirectionDegrees,WindSpeedMPH,WindSpeedGustMPH,Humidity,HourlyPrecipIn,Conditions,Clouds,dailyrainin,SoftwareType,DateUTC
2013-06-12 00:00:00,71.0,60.0,-100.00,West,267,5.0,10.0,69,-99.99,,,-99.99,,2013-06-12 04:00:00,
2013-06-12 00:34:00,71.0,60.0,-100.00,West,267,5.0,10.0,69,-99.99,,,-99.99,,2013-06-12 04:34:00,
2013-06-12 00:43:00,71.0,60.0,-100.00,West,267,5.0,10.0,69,-99.99,,,-99.99,,2013-06-12 04:43:00,
2013-06-12 00:53:00,71.0,60.0,-100.00,West,267,5.0,10.0,69,-99.99,,,-99.99,,2013-06-12 04:53:00,
2013-06-12 01:00:00,71.0,60.0,-100.00,WNW,302,6.0,11.0,68,-99.99,,,-99.99,,2013-06-12 05:00:00,
2013-06-12 01:22:00,71.0,60.0,-100.00,WNW,302,6.0,11.0,68,-99.99,,,-99.99,,2013-06-12 05:22:00,
2013-06-12 01:32:00,71.0,60.0,-100.00,WNW,302,6.0,11.0,68,-99.99,,,-99.99,,2013-06-12 05:32:00,
2013-06-12 01:42:00,71.0,60.0,-100.00,WNW,302,6.0,11.0,68,-99.99,,,-99.99,,2013-06-12 05:42:00,
2013-06-12 01:52:00,71.0,60.0,-100.00,WNW,302,6.0,11.0,68,-99.99,,,-99.99,,2013-06-12 05:52:00,
2013-06-12 02:00:00,70.0,59.0,-100.00,WSW,255,4.0,13.0,68,0.00,,,-99.99,,2013-06-12 06:00:00,
2013-06-12 02:22:00,70.0,59.0,-100.00,WSW,255,4.0,13.0,68,-99.99,,,-99.99,,2013-06-12 06:22:00,
2013-06-12 02:32:00,70.0,59.0,-100.00,WSW,255,4.0,13.0,68,-99.99,,,-99.99,,2013-06-12 06:32:00,
2013-06-12 02:42:00,70.0,59.0,-100.00,WSW,255,4.0,13.0,68,-99.99,,,-99.99,,2013-06-12 06:42:00,
2013-06-12 02:52:00,70.0,59.0,-100.00,WSW,255,4.0,13.0,68,-99.99,,,-99.99,,2013-06-12 06:52:00,
2013-06-12 03:00:00,69.0,58.0,-100.00,West,275,9.0,13.0,69,0.00,,,-99.99,,2013-06-12 07:00:00,
2013-06-12 03:33:00,69.0,58.0,-100.00,West,275,9.0,13.0,69,0.00,,,-99.99,,2013-06-12 07:33:00,
2013-06-12 03:43:00,69.0,58.0,-100.00,West,275,9.0,13.0,69,0.00,,,-99.99,,2013-06-12 07:43:00,
2013-06-12 03:53:00,69.0,58.0,-100.00,West,275,9.0,13.0,69,0.00,,,-99.99,,2013-06-12 07:53:00,
2013-06-12 04:00:00,69.0,58.0,-100.00,West,269,9.0,16.0,68,0.00,,,-99.99,,2013-06-12 08:00:00,
2013-06-12 04:33:00,69.0,58.0,-100.00,West,269,9.0,16.0,68,0.00,,,-99.99,,2013-06-12 08:33:00,
2013-06-12 04:43:00,69.0,58.0,-100.00,West,269,9.0,16.0,68,0.00,,,-99.99,,2013-06-12 08:43:00,
2013-06-12 04:53:00,69.0,58.0,-100.00,West,269,9.0,16.0,68,0.00,,,-99.99,,2013-06-12 08:53:00,
2013-06-12 05:00:00,68.0,58.0,-100.00,NW,317,5.0,17.0,69,0.00,,,-99.99,,2013-06-12 09:00:00,
2013-06-12 05:33:00,68.0,58.0,-100.00,NW,317,5.0,17.0,69,0.00,,,-99.99,,2013-06-12 09:33:00,
2013-06-12 05:43:00,68.0,58.0,-100.00,NW,317,5.0,17.0,69,0.00,,,-99.99,,2013-06-12 09:43:00,
2013-06-12 05:53:00,68.0,58.0,-100.00,NW,317,5.0,17.0,69,0.00,,,-99.99,,2013-06-12 09:53:00,
2013-06-12 06:00:00,68.0,58.0,-100.00,WNW,293,6.0,17.0,70,0.00,,,-99.99,,2013-06-12 10:00:00,
2013-06-12 06:33:00,68.0,58.0,-100.00,WNW,293,6.0,17.0,70,0.00,,,-99.99,,2013-06-12 10:33:00,
2013-06-12 06:43:00,68.0,58.0,-100.00,WNW,293,6.0,17.0,70,0.00,,,-99.99,,2013-06-12 10:43:00,
2013-06-12 06:53:00,68.0,58.0,-100.00,WNW,293,6.0,17.0,70,0.00,,,-99.99,,2013-06-12 10:53:00,
2013-06-12 07:00:00,68.0,58.0,-100.00,NW,313,5.0,15.0,71,0.00,,,-99.99,,2013-06-12 11:00:00,
2013-06-12 07:33:00,68.0,58.0,-100.00,NW,313,5.0,15.0,71,0.00,,,-99.99,,2013-06-12 11:33:00,
2013-06-12 07:43:00,68.0,58.0,-100.00,NW,313,5.0,15.0,71,0.00,,,-99.99,,2013-06-12 11:43:00,
2013-06-12 07:53:00,68.0,58.0,-100.00,NW,313,5.0,15.0,71,0.00,,,-99.99,,2013-06-12 11:53:00,
2013-06-12 08:00:00,68.0,57.0,-100.00,NW,313,11.0,16.0,67,0.00,,,-99.99,,2013-06-12 12:00:00,
2013-06-12 08:33:00,68.0,57.0,-100.00,NW,313,11.0,16.0,67,0.00,,,-99.99,,2013-06-12 12:33:00,
2013-06-12 08:43:00,68.0,57.0,-100.00,NW,313,11.0,16.0,67,0.00,,,-99.99,,2013-06-12 12:43:00,
2013-06-12 08:53:00,68.0,57.0,-100.00,NW,313,11.0,16.0,67,0.00,,,-99.99,,2013-06-12 12:53:00,
2013-06-12 09:00:00,69.0,53.0,-100.00,WNW,288,11.0,23.0,55,0.00,,,-99.99,,2013-06-12 13:00:00,
2013-06-12 09:33:00,69.0,53.0,-100.00,WNW,288,11.0,23.0,55,0.00,,,-99.99,,2013-06-12 13:33:00,
2013-06-12 09:43:00,69.0,53.0,-100.00,WNW,288,11.0,23.0,55,0.00,,,-99.99,,2013-06-12 13:43:00,
2013-06-12 09:53:00,69.0,53.0,-100.00,WNW,288,11.0,23.0,55,0.00,,,-99.99,,2013-06-12 13:53:00,
2013-06-12 10:00:00,70.0,54.0,-100.00,NW,321,11.0,21.0,57,0.00,,,-99.99,,2013-06-12 14:00:00,
2013-06-12 10:33:00,70.0,54.0,-100.00,NW,321,11.0,21.0,57,0.00,,,-99.99,,2013-06-12 14:33:00,
2013-06-12 10:43:00,70.0,54.0,-100.00,NW,321,11.0,21.0,57,0.00,,,-99.99,,2013-06-12 14:43:00,
2013-06-12 10:53:00,70.0,54.0,-100.00,NW,321,11.0,21.0,57,0.00,,,-99.99,,2013-06-12 14:53:00,
2013-06-12 11:00:00,72.0,55.0,-100.00,WNW,294,5.0,23.0,56,0.00,,,-99.99,,2013-06-12 15:00:00,
2013-06-12 11:33:00,72.0,55.0,-100.00,WNW,294,5.0,23.0,56,0.00,,,-99.99,,2013-06-12 15:33:00,
2013-06-12 11:43:00,72.0,55.0,-100.00,WNW,294,5.0,23.0,56,0.00,,,-99.99,,2013-06-12 15:43:00,
2013-06-12 11:52:00,72.0,55.0,-100.00,WNW,294,5.0,23.0,56,0.00,,,-99.99,,2013-06-12 15:52:00,
2013-06-12 12:00:00,73.0,55.0,-100.00,NW,309,5.0,21.0,54,0.00,,,-99.99,,2013-06-12 16:00:00,
2013-06-12 12:33:00,73.0,55.0,-100.00,NW,309,5.0,21.0,54,0.00,,,-99.99,,2013-06-12 16:33:00,
2013-06-12 12:43:00,73.0,55.0,-100.00,NW,309,5.0,21.0,54,0.00,,,-99.99,,2013-06-12 16:43:00,
2013-06-12 12:53:00,73.0,55.0,-100.00,NW,309,5.0,21.0,54,0.00,,,-99.99,,2013-06-12 16:53:00,
2013-06-12 13:00:00,75.0,56.0,-100.00,WNW,293,11.0,21.0,51,0.00,,,-99.99,,2013-06-12 17:00:00,
2013-06-12 13:33:00,75.0,56.0,-100.00,WNW,293,11.0,21.0,51,0.00,,,-99.99,,2013-06-12 17:33:00,
2013-06-12 13:43:00,75.0,56.0,-100.00,WNW,293,11.0,21.0,51,0.00,,,-99.99,,2013-06-12 17:43:00,
2013-06-12 13:52:00,75.0,56.0,-100.00,WNW,293,11.0,21.0,51,0.00,,,-99.99,,2013-06-12 17:52:00,
2013-06-12 14:00:00,78.0,54.0,-100.00,WNW,293,7.0,21.0,43,0.00,,,-99.99,,2013-06-12 18:00:00,
2013-06-12 14:33:00,78.0,54.0,-100.00,WNW,293,7.0,21.0,43,0.00,,,-99.99,,2013-06-12 18:33:00,
2013-06-12 14:43:00,78.0,54.0,-100.00,WNW,293,7.0,21.0,43,0.00,,,-99.99,,2013-06-12 18:43:00,
2013-06-12 14:53:00,78.0,54.0,-100.00,WNW,293,7.0,21.0,43,0.00,,,-99.99,,2013-06-12 18:53:00,
2013-06-12 15:00:00,77.0,52.0,-100.00,NW,324,11.0,21.0,41,0.00,,,-99.99,,2013-06-12 19:00:00,
2013-06-12 15:33:00,77.0,52.0,-100.00,NW,324,11.0,21.0,41,0.00,,,-99.99,,2013-06-12 19:33:00,
2013-06-12 15:43:00,77.0,52.0,-100.00,NW,324,11.0,21.0,41,0.00,,,-99.99,,2013-06-12 19:43:00,
2013-06-12 15:52:00,77.0,52.0,-100.00,NW,324,11.0,21.0,41,0.00,,,-99.99,,2013-06-12 19:52:00,
2013-06-12 16:00:00,79.0,50.0,-100.00,North,0,5.0,23.0,36,0.00,,,-99.99,,2013-06-12 20:00:00,
2013-06-12 16:33:00,79.0,50.0,-100.00,North,0,5.0,23.0,36,0.00,,,-99.99,,2013-06-12 20:33:00,
2013-06-12 16:43:00,79.0,50.0,-100.00,North,0,5.0,23.0,36,0.00,,,-99.99,,2013-06-12 20:43:00,
2013-06-12 16:54:00,79.0,50.0,-100.00,North,0,5.0,23.0,36,0.00,,,-99.99,,2013-06-12 20:54:00,
2013-06-12 17:00:00,76.0,54.0,-100.00,NNE,16,8.0,16.0,46,0.00,,,-99.99,,2013-06-12 21:00:00,
2013-06-12 17:33:00,76.0,54.0,-100.00,NNE,16,8.0,16.0,46,0.00,,,-99.99,,2013-06-12 21:33:00,
2013-06-12 17:43:00,76.0,54.0,-100.00,NNE,16,8.0,16.0,46,0.00,,,-99.99,,2013-06-12 21:43:00,
2013-06-12 17:53:00,76.0,54.0,-100.00,NNE,16,8.0,16.0,46,0.00,,,-99.99,,2013-06-12 21:53:00,
2013-06-12 18:00:00,77.0,55.0,-100.00,NNE,32,4.0,15.0,46,0.00,,,-99.99,,2013-06-12 22:00:00,
2013-06-12 18:33:00,77.0,55.0,-100.00,NNE,32,4.0,15.0,46,0.00,,,-99.99,,2013-06-12 22:33:00,
2013-06-12 18:43:00,77.0,55.0,-100.00,NNE,32,4.0,15.0,46,0.00,,,-99.99,,2013-06-12 22:43:00,
2013-06-12 18:53:00,77.0,55.0,-100.00,NNE,32,4.0,15.0,46,0.00,,,-99.99,,2013-06-12 22:53:00,
2013-06-12 19:00:00,75.0,52.0,-100.00,NNE,14,7.0,15.0,44,0.00,,,-99.99,,2013-06-12 23:00:00,
2013-06-12 19:32:00,75.0,52.0,-100.00,NNE,14,7.0,15.0,44,0.00,,,-99.99,,2013-06-12 23:32:00,
2013-06-12 19:43:00,75.0,52.0,-100.00,NNE,14,7.0,15.0,44,0.00,,,-99.99,,2013-06-12 23:43:00,
2013-06-12 19:53:00,75.0,52.0,-100.00,NNE,14,7.0,15.0,44,0.00,,,-99.99,,2013-06-12 23:53:00,
2013-06-12 20:00:00,73.0,52.0,-100.00,NNE,22,3.0,11.0,47,0.00,,,-99.99,,2013-06-13 00:00:00,
2013-06-12 20:33:00,73.0,52.0,-100.00,NNE,22,3.0,11.0,47,0.00,,,-99.99,,2013-06-13 00:33:00,
2013-06-12 20:43:00,73.0,52.0,-100.00,NNE,22,3.0,11.0,47,0.00,,,-99.99,,2013-06-13 00:43:00,
2013-06-12 20:52:00,73.0,52.0,-100.00,NNE,22,3.0,11.0,47,0.00,,,-99.99,,2013-06-13 00:52:00,
2013-06-12 21:00:00,71.0,53.0,-100.00,NW,322,0.0,6.0,54,0.00,,,-99.99,,2013-06-13 01:00:00,
2013-06-12 21:33:00,71.0,53.0,-100.00,NW,322,0.0,6.0,54,0.00,,,-99.99,,2013-06-13 01:33:00,
2013-06-12 21:43:00,71.0,53.0,-100.00,NW,322,0.0,6.0,54,0.00,,,-99.99,,2013-06-13 01:43:00,
2013-06-12 21:53:00,71.0,53.0,-100.00,NW,322,0.0,6.0,54,0.00,,,-99.99,,2013-06-13 01:53:00,
2013-06-12 22:00:00,66.0,57.0,-100.00,SSW,196,0.0,4.0,73,0.00,,,-99.99,,2013-06-13 02:00:00,
2013-06-12 22:33:00,66.0,57.0,-100.00,SSW,196,0.0,4.0,73,0.00,,,-99.99,,2013-06-13 02:33:00,
2013-06-12 22:43:00,66.0,57.0,-100.00,SSW,196,0.0,4.0,73,0.00,,,-99.99,,2013-06-13 02:43:00,
2013-06-12 22:52:00,66.0,57.0,-100.00,SSW,196,0.0,4.0,73,0.00,,,-99.99,,2013-06-13 02:52:00,
2013-06-12 23:00:00,65.0,55.0,-100.00,North,350,0.0,0.0,71,0.00,,,-99.99,,2013-06-13 03:00:00,
2013-06-12 23:33:00,65.0,55.0,-100.00,North,350,0.0,0.0,71,0.00,,,-99.99,,2013-06-13 03:33:00,
2013-06-12 23:43:00,65.0,55.0,-100.00,North,350,0.0,0.0,71,0.00,,,-99.99,,2013-06-13 03:43:00,
2013-06-12 23:52:00,65.0,55.0,-100.00,North,350,0.0,0.0,71,0.00,,,-99.99,,2013-06-13 03:52:00,